STARLINK-36809

Last updated on Wed Mar 25 2026 00:02:05 GMT+0000 (Coordinated Universal Time)

1 67929U 26036AB 26083.50002314 -.01863635 00000+0 -51920-1 0 9995 2 67929 42.9996 161.6828 0001663 293.5435 165.8499 15.39377688 6020
UTC large
Height (km)
Speed (km/s)
/
Latitude / Longitude
Inclination (degrees)
Orbital Period (minutes)
Azimuth
Elevation
Range (km)
Doppler Factor

Next 0 passes for location: London (51.5072 / 0.1276)

Sorry there are no passes over London.